,,,PA_Meas_PMT16A,,PR_Meas_QMR101_102,,RH_Meas_QMH101,,SR_Meas_QMS101,,TA_Meas_QMH101,,GenWind,,GenWind,
date,time,status,PA,status,PR,status,RH,status,SR,status,TA,status,DirAvg,status,SpdAvg,
2011-07-30, 00:00:04,VALID,1000.41,VALID,0,VALID,77.0668,VALID,0,VALID,24.6556,VALID,350,VALID,0.161328,
2011-07-30, 00:01:04,VALID,1000.45,VALID,0,VALID,77.4559,VALID,0,VALID,24.5971,VALID,350,VALID,0.0449219,
2011-07-30, 00:02:04,VALID,1000.44,VALID,0,VALID,77.8221,VALID,0,VALID,24.5404,VALID,350,VALID,0,
2011-07-30, 00:03:04,VALID,1000.47,VALID,0,VALID,77.9671,VALID,0,VALID,24.5013,VALID,350,VALID,0.326562,
2011-07-30, 00:04:04,VALID,1000.44,VALID,0,VALID,78.1578,VALID,0,VALID,24.4818,VALID,352,VALID,0.631641,
2011-07-30, 00:05:04,VALID,1000.42,VALID,0,VALID,78.0663,VALID,0,VALID,24.4037,VALID,33,VALID,0.932031,
2011-07-30, 00:06:04,VALID,1000.39,VALID,0,VALID,78.3028,VALID,0,VALID,24.3433,VALID,346,VALID,0.634766,
2011-07-30, 00:07:04,VALID,1000.4,VALID,0,VALID,78.2341,VALID,0,VALID,24.2866,VALID,341,VALID,0.176563,
2011-07-30, 00:08:04,VALID,1000.4,VALID,0,VALID,78.669,VALID,0,VALID,24.2067,VALID,341,VALID,0.331641,
2011-07-30, 00:09:04,VALID,1000.38,VALID,0,VALID,78.7529,VALID,0,VALID,24.1677,VALID,341,VALID,0.457031,
2011-07-30, 00:10:04,VALID,1000.39,VALID,0,VALID,78.7377,VALID,0,VALID,24.1696,VALID,341,VALID,0.246094,
2011-07-30, 00:11:04,VALID,1000.4,VALID,0,VALID,78.8674,VALID,0,VALID,24.1287,VALID,341,VALID,0.260156,
2011-07-30, 00:12:04,VALID,1000.37,VALID,0,VALID,79.1192,VALID,0,VALID,24.1092,VALID,341,VALID,0.313672,
2011-07-30, 00:13:04,VALID,1000.32,VALID,0,VALID,79.1955,VALID,0,VALID,24.0701,VALID,14,VALID,0.650391,
2011-07-30, 00:14:04,VALID,1000.31,VALID,0,VALID,79.3786,VALID,0,VALID,24.0311,VALID,44,VALID,0.832422,
2011-07-30, 00:15:04,VALID,1000.26,VALID,0,VALID,79.7524,VALID,0,VALID,23.9939,VALID,48,VALID,1.16836,
2011-07-30, 00:16:04,VALID,1000.25,VALID,0,VALID,80.3094,VALID,0,VALID,23.9549,VALID,41,VALID,1.4957,
2011-07-30, 00:17:04,VALID,1000.22,VALID,0,VALID,81.0571,VALID,0,VALID,23.797,VALID,33,VALID,1.43789,
2011-07-30, 00:18:04,VALID,1000.23,VALID,0,VALID,81.6674,VALID,0,VALID,23.7012,VALID,33,VALID,0.692187,
2011-07-30, 00:19:04,VALID,1000.18,VALID,0,VALID,81.8124,VALID,0,VALID,23.5823,VALID,18,VALID,0.663672,
2011-07-30, 00:20:04,VALID,1000.19,VALID,0,VALID,82.2626,VALID,0,VALID,23.4653,VALID,14,VALID,1.13047,
2011-07-30, 00:21:04,VALID,1000.16,VALID,0,VALID,83.0713,VALID,0,VALID,23.428,VALID,23,VALID,0.951563,
2011-07-30, 00:22:04,VALID,1000.15,VALID,0,VALID,83.3383,VALID,0,VALID,23.3677,VALID,24,VALID,0.493359,
2011-07-30, 00:23:04,VALID,1000.12,VALID,0,VALID,83.4986,VALID,0,VALID,23.2702,VALID,23,VALID,0.344531,
2011-07-30, 00:24:04,VALID,1000.11,VALID,0,VALID,84.086,VALID,0,VALID,23.2117,VALID,14,VALID,0.880078,
2011-07-30, 00:25:04,VALID,1000.06,VALID,0,VALID,84.5209,VALID,0,VALID,23.2117,VALID,16,VALID,1.15859,
2011-07-30, 00:26:04,VALID,1000.06,VALID,0,VALID,84.4599,VALID,0,VALID,23.2312,VALID,20,VALID,1.05352,
2011-07-30, 00:27:04,VALID,1000.06,VALID,0,VALID,84.4141,VALID,0,VALID,23.2507,VALID,19,VALID,0.726172,
2011-07-30, 00:28:04,VALID,1000.02,VALID,0,VALID,84.3531,VALID,0,VALID,23.2897,VALID,10,VALID,1.10195,
2011-07-30, 00:29:04,VALID,1000.05,VALID,0,VALID,84.1242,VALID,0,VALID,23.3482,VALID,10,VALID,0.372656,
2011-07-30, 00:30:04,VALID,1000.04,VALID,0,VALID,83.5062,VALID,0,VALID,23.35,VALID,10,VALID,0.178125,
2011-07-30, 00:31:04,VALID,1000.01,VALID,0,VALID,83.7198,VALID,0,VALID,23.2702,VALID,72,VALID,0.760156,
2011-07-30, 00:32:04,VALID,1000.02,VALID,0,VALID,84.3149,VALID,0,VALID,23.2507,VALID,63,VALID,0.401563,
2011-07-30, 00:33:04,VALID,999.982,VALID,0,VALID,84.2615,VALID,0,VALID,23.2507,VALID,40,VALID,0.664453,
2011-07-30, 00:34:04,VALID,999.973,VALID,0,VALID,84.1852,VALID,0,VALID,23.2719,VALID,14,VALID,0.390625,
2011-07-30, 00:35:04,VALID,999.968,VALID,0,VALID,83.9258,VALID,0,VALID,23.2312,VALID,14,VALID,0.295312,
2011-07-30, 00:36:04,VALID,999.922,VALID,0,VALID,83.0408,VALID,0,VALID,23.2915,VALID,173,VALID,0.459375,
2011-07-30, 00:37:04,VALID,999.94,VALID,0,VALID,82.8577,VALID,0,VALID,23.3482,VALID,76,VALID,0.228906,
2011-07-30, 00:38:04,VALID,999.959,VALID,0,VALID,83.1018,VALID,0,VALID,23.389,VALID,45,VALID,0.423828,
2011-07-30, 00:39:04,VALID,999.96,VALID,0,VALID,83.2163,VALID,0,VALID,23.3695,VALID,331,VALID,0.121484,
2011-07-30, 00:40:04,VALID,999.933,VALID,0,VALID,83.4223,VALID,0,VALID,23.3677,VALID,331,VALID,0.493359,
2011-07-30, 00:41:04,VALID,999.92,VALID,0,VALID,80.6756,VALID,0,VALID,23.3482,VALID,136,VALID,0.567578,
2011-07-30, 00:42:04,VALID,999.884,VALID,0,VALID,81.4691,VALID,0,VALID,23.5061,VALID,62,VALID,0.839844,
2011-07-30, 00:43:04,VALID,999.898,VALID,0,VALID,81.2097,VALID,0,VALID,23.4848,VALID,83,VALID,0.884375,
2011-07-30, 00:44:04,VALID,999.861,VALID,0,VALID,80.5917,VALID,0,VALID,23.4671,VALID,104,VALID,0.635938,
2011-07-30, 00:45:04,VALID,999.822,VALID,0,VALID,81.3089,VALID,0,VALID,23.4866,VALID,84,VALID,1.12344,
2011-07-30, 00:46:04,VALID,999.786,VALID,0,VALID,80.874,VALID,0,VALID,23.4653,VALID,105,VALID,0.895703,
2011-07-30, 00:47:04,VALID,999.778,VALID,0,VALID,81.5072,VALID,0,VALID,23.4458,VALID,105,VALID,0.786328,
2011-07-30, 00:48:04,VALID,999.767,VALID,0,VALID,81.7361,VALID,0,VALID,23.428,VALID,105,VALID,0.0878906,
2011-07-30, 00:49:04,VALID,999.77,VALID,0,VALID,81.8353,VALID,0,VALID,23.3092,VALID,105,VALID,0.000390625,
2011-07-30, 00:50:04,VALID,999.751,VALID,0,VALID,82.4762,VALID,0,VALID,23.2507,VALID,90,VALID,0.448828,
2011-07-30, 00:51:04,VALID,999.721,VALID,0,VALID,82.9263,VALID,0,VALID,23.2312,VALID,315,VALID,0.541406,
2011-07-30, 00:52:04,VALID,999.709,VALID,0,VALID,83.3155,VALID,0,VALID,23.2524,VALID,355,VALID,0.857031,
2011-07-30, 00:53:04,VALID,999.726,VALID,0,VALID,84.2768,VALID,0,VALID,23.2524,VALID,35,VALID,0.7,
2011-07-30, 00:54:04,VALID,999.72,VALID,0,VALID,84.643,VALID,0,VALID,23.2117,VALID,35,VALID,0.316016,
2011-07-30, 00:55:04,VALID,999.704,VALID,0,VALID,84.9329,VALID,0,VALID,23.2134,VALID,35,VALID,0.244531,
2011-07-30, 00:56:04,VALID,999.718,VALID,0,VALID,85.0779,VALID,0,VALID,23.1336,VALID,35,VALID,0.195703,
2011-07-30, 00:57:04,VALID,999.685,VALID,0,VALID,85.2305,VALID,0,VALID,23.0946,VALID,35,VALID,0.180078,
2011-07-30, 00:58:04,VALID,999.711,VALID,0,VALID,85.3755,VALID,0,VALID,23.0573,VALID,35,VALID,0.28125,
2011-07-30, 00:59:04,VALID,999.689,VALID,0,VALID,85.6196,VALID,0,VALID,23.0183,VALID,35,VALID,0.188281,
2011-07-30, 01:00:04,VALID,999.688,VALID,0,VALID,85.7569,VALID,0,VALID,22.9581,VALID,35,VALID,0.155078,
2011-07-30, 01:01:04,VALID,999.639,VALID,0,VALID,86.1537,VALID,0,VALID,22.9385,VALID,351,VALID,0.724609,
2011-07-30, 01:02:04,VALID,999.599,VALID,0,VALID,86.3444,VALID,0,VALID,22.9208,VALID,333,VALID,1.04727,
2011-07-30, 01:03:04,VALID,999.611,VALID,0,VALID,86.4894,VALID,0,VALID,22.8818,VALID,333,VALID,0.937891,
2011-07-30, 01:04:04,VALID,999.583,VALID,0,VALID,86.6954,VALID,0,VALID,22.8215,VALID,333,VALID,0.392188,
2011-07-30, 01:05:04,VALID,999.59,VALID,0,VALID,86.703,VALID,0,VALID,22.7825,VALID,333,VALID,0,
2011-07-30, 01:06:04,VALID,999.559,VALID,0,VALID,86.6725,VALID,0,VALID,22.7647,VALID,333,VALID,0.239453,
2011-07-30, 01:07:04,VALID,999.523,VALID,0,VALID,87.1989,VALID,0,VALID,22.7257,VALID,333,VALID,0.491797,
2011-07-30, 01:08:04,VALID,999.539,VALID,0,VALID,87.5575,VALID,0,VALID,22.7257,VALID,12,VALID,0.619922,
2011-07-30, 01:09:04,VALID,999.445,VALID,0,VALID,87.6796,VALID,0,VALID,22.724,VALID,53,VALID,0.987109,
2011-07-30, 01:10:04,VALID,999.425,VALID,0,VALID,87.6567,VALID,0,VALID,22.7842,VALID,52,VALID,1.21758,
2011-07-30, 01:11:04,VALID,999.404,VALID,0,VALID,87.6491,VALID,0,VALID,22.8427,VALID,52,VALID,0.971875,
2011-07-30, 01:12:04,VALID,999.395,VALID,0,VALID,87.4583,VALID,0,VALID,22.8427,VALID,52,VALID,0.860547,
2011-07-30, 01:13:04,VALID,999.413,VALID,0,VALID,87.5804,VALID,0,VALID,22.8623,VALID,52,VALID,0.735156,
2011-07-30, 01:14:04,VALID,999.38,VALID,0,VALID,87.382,VALID,0,VALID,22.8232,VALID,52,VALID,0.449219,
2011-07-30, 01:15:04,VALID,999.337,VALID,0,VALID,87.4889,VALID,0,VALID,22.763,VALID,52,VALID,0.437109,
2011-07-30, 01:16:04,VALID,999.361,VALID,0,VALID,87.4126,VALID,0,VALID,22.7045,VALID,52,VALID,0.117969,
2011-07-30, 01:17:04,VALID,999.357,VALID,0,VALID,87.382,VALID,0,VALID,22.646,VALID,52,VALID,0,
2011-07-30, 01:18:04,VALID,999.324,VALID,0,VALID,87.4431,VALID,0,VALID,22.6087,VALID,52,VALID,0.157422,
2011-07-30, 01:19:04,VALID,999.287,VALID,0,VALID,87.6872,VALID,0,VALID,22.5892,VALID,52,VALID,0.808203,
2011-07-30, 01:20:04,VALID,999.318,VALID,0,VALID,88.0458,VALID,0,VALID,22.5501,VALID,52,VALID,0.785156,
2011-07-30, 01:21:04,VALID,999.291,VALID,0,VALID,88.412,VALID,0,VALID,22.5679,VALID,52,VALID,0.770703,
2011-07-30, 01:22:04,VALID,999.288,VALID,0,VALID,87.9161,VALID,0.112286,VALID,22.5679,VALID,68,VALID,1.05469,
2011-07-30, 01:23:04,VALID,999.288,VALID,0,VALID,87.7483,VALID,0,VALID,22.5289,VALID,68,VALID,0.733984,
2011-07-30, 01:24:04,VALID,999.299,VALID,0,VALID,87.3439,VALID,0,VALID,22.4509,VALID,68,VALID,0.214062,
2011-07-30, 01:25:04,VALID,999.304,VALID,0,VALID,87.2905,VALID,0.112286,VALID,22.3941,VALID,68,VALID,0.0113281,
2011-07-30, 01:26:04,VALID,999.273,VALID,0,VALID,87.6414,VALID,0.112286,VALID,22.3339,VALID,68,VALID,0.356641,
2011-07-30, 01:27:04,VALID,999.29,VALID,0,VALID,87.878,VALID,0,VALID,22.2754,VALID,46,VALID,0.548437,
2011-07-30, 01:28:04,VALID,999.258,VALID,0,VALID,88.2137,VALID,0,VALID,22.2559,VALID,45,VALID,0.247266,
2011-07-30, 01:29:04,VALID,999.248,VALID,0,VALID,88.4578,VALID,0,VALID,22.2576,VALID,45,VALID,0.373437,
2011-07-30, 01:30:04,VALID,999.213,VALID,0,VALID,88.6943,VALID,0,VALID,22.199,VALID,42,VALID,0.65,
2011-07-30, 01:31:04,VALID,999.22,VALID,0,VALID,88.8698,VALID,0,VALID,22.2186,VALID,14,VALID,0.641406,
2011-07-30, 01:32:04,VALID,999.209,VALID,0,VALID,88.8164,VALID,0,VALID,22.2007,VALID,14,VALID,0.449609,
2011-07-30, 01:33:04,VALID,999.199,VALID,0,VALID,88.9156,VALID,0,VALID,22.1405,VALID,14,VALID,0.538672,
2011-07-30, 01:34:04,VALID,999.195,VALID,0,VALID,89.1445,VALID,0,VALID,22.1405,VALID,14,VALID,0.741797,
2011-07-30, 01:35:04,VALID,999.168,VALID,0,VALID,89.3352,VALID,0,VALID,22.1405,VALID,14,VALID,0.671875,
2011-07-30, 01:36:04,VALID,999.169,VALID,0,VALID,89.6709,VALID,0,VALID,22.2007,VALID,14,VALID,0.548828,
2011-07-30, 01:37:04,VALID,999.165,VALID,0,VALID,89.8617,VALID,0,VALID,22.2186,VALID,14,VALID,0.351563,
2011-07-30, 01:38:04,VALID,999.149,VALID,0,VALID,89.6404,VALID,0,VALID,22.1795,VALID,14,VALID,0.485938,
2011-07-30, 01:39:04,VALID,999.121,VALID,0,VALID,89.7091,VALID,0,VALID,22.1812,VALID,73,VALID,1.00195,
2011-07-30, 01:40:04,VALID,999.107,VALID,0,VALID,89.8769,VALID,0,VALID,22.2007,VALID,94,VALID,1.09531,
2011-07-30, 01:41:04,VALID,999.068,VALID,0,VALID,89.6404,VALID,0,VALID,22.1795,VALID,102,VALID,1.05938,
2011-07-30, 01:42:04,VALID,999.057,VALID,0,VALID,89.8311,VALID,0,VALID,22.2202,VALID,118,VALID,0.640625,
2011-07-30, 01:43:04,VALID,999.021,VALID,0,VALID,90.1363,VALID,0,VALID,22.3161,VALID,118,VALID,0.514453,
2011-07-30, 01:44:04,VALID,999.021,VALID,0,VALID,90.0524,VALID,0,VALID,22.3763,VALID,118,VALID,0.364453,
2011-07-30, 01:45:04,VALID,999.01,VALID,0,VALID,89.793,VALID,0,VALID,22.3958,VALID,118,VALID,0.245312,
2011-07-30, 01:46:04,VALID,999.01,VALID,0,VALID,89.3428,VALID,0,VALID,22.3763,VALID,118,VALID,0.367578,
2011-07-30, 01:47:04,VALID,999.003,VALID,0,VALID,88.908,VALID,0,VALID,22.3178,VALID,118,VALID,0.798437,
2011-07-30, 01:48:04,VALID,999.007,VALID,0,VALID,88.9919,VALID,0,VALID,22.3178,VALID,107,VALID,0.948438,
2011-07-30, 01:49:04,VALID,998.959,VALID,0,VALID,89.2208,VALID,0,VALID,22.3568,VALID,103,VALID,0.912891,
2011-07-30, 01:50:04,VALID,998.904,VALID,0,VALID,89.2437,VALID,0,VALID,22.4136,VALID,103,VALID,0.882813,
2011-07-30, 01:51:04,VALID,998.857,VALID,0,VALID,88.8317,VALID,0,VALID,22.4136,VALID,103,VALID,0.719531,
2011-07-30, 01:52:04,VALID,998.818,VALID,0,VALID,88.351,VALID,0,VALID,22.3941,VALID,103,VALID,0.531641,
2011-07-30, 01:53:04,VALID,998.794,VALID,0,VALID,88.2594,VALID,0,VALID,22.3356,VALID,103,VALID,0.561719,
2011-07-30, 01:54:04,VALID,998.772,VALID,0,VALID,88.6714,VALID,0,VALID,22.3161,VALID,103,VALID,0.44375,
2011-07-30, 01:55:04,VALID,998.753,VALID,0,VALID,88.908,VALID,0,VALID,22.3373,VALID,103,VALID,0.117578,
2011-07-30, 01:56:04,VALID,998.719,VALID,0,VALID,88.9461,VALID,0,VALID,22.2966,VALID,103,VALID,0,
2011-07-30, 01:57:04,VALID,998.705,VALID,0,VALID,89.0682,VALID,0,VALID,22.2576,VALID,103,VALID,0,
2011-07-30, 01:58:04,VALID,998.686,VALID,0,VALID,89.3352,VALID,0,VALID,22.2788,VALID,103,VALID,0.451172,
2011-07-30, 01:59:04,VALID,998.7,VALID,0,VALID,89.3047,VALID,0,VALID,22.2381,VALID,103,VALID,0.395312,
2011-07-30, 02:00:04,VALID,998.697,VALID,0,VALID,89.6023,VALID,0,VALID,22.2381,VALID,103,VALID,1.03477,
2011-07-30, 02:01:04,VALID,998.694,VALID,0,VALID,90.1211,VALID,0,VALID,22.3161,VALID,103,VALID,0.78125,
2011-07-30, 02:02:04,VALID,998.669,VALID,0,VALID,90.3118,VALID,0,VALID,22.3551,VALID,98,VALID,0.852344,
2011-07-30, 02:03:04,VALID,998.676,VALID,0,VALID,90.2966,VALID,0,VALID,22.3958,VALID,82,VALID,0.7125,
2011-07-30, 02:04:04,VALID,998.674,VALID,0,VALID,90.1821,VALID,0,VALID,22.3746,VALID,82,VALID,0.722266,
2011-07-30, 02:05:04,VALID,998.692,VALID,0,VALID,89.9761,VALID,0,VALID,22.3568,VALID,82,VALID,0.659766,
2011-07-30, 02:06:04,VALID,998.649,VALID,0,VALID,89.8617,VALID,0,VALID,22.3356,VALID,64,VALID,0.941406,
2011-07-30, 02:07:04,VALID,998.649,VALID,0,VALID,89.5641,VALID,0,VALID,22.2788,VALID,52,VALID,1.15703,
2011-07-30, 02:08:04,VALID,998.619,VALID,0,VALID,89.5107,VALID,0,VALID,22.2592,VALID,54,VALID,0.916406,
2011-07-30, 02:09:04,VALID,998.644,VALID,0,VALID,89.3047,VALID,0,VALID,22.2397,VALID,54,VALID,0.817969,
2011-07-30, 02:10:04,VALID,998.629,VALID,0,VALID,89.0987,VALID,0,VALID,22.1812,VALID,54,VALID,0.922266,
2011-07-30, 02:11:04,VALID,998.666,VALID,0,VALID,89.0758,VALID,0,VALID,22.1422,VALID,54,VALID,0.833984,
2011-07-30, 02:12:04,VALID,998.625,VALID,0,VALID,89.3886,VALID,0,VALID,22.1227,VALID,54,VALID,0.769922,
2011-07-30, 02:13:04,VALID,998.647,VALID,0,VALID,89.5641,VALID,0,VALID,22.1422,VALID,54,VALID,0.860156,
2011-07-30, 02:14:04,VALID,998.603,VALID,0,VALID,89.5412,VALID,0,VALID,22.1032,VALID,54,VALID,1.00508,
2011-07-30, 02:15:04,VALID,998.56,VALID,0,VALID,89.8311,VALID,0,VALID,22.1227,VALID,54,VALID,1.075,
2011-07-30, 02:16:04,VALID,998.581,VALID,0,VALID,89.9609,VALID,0,VALID,22.1422,VALID,54,VALID,1.02578,
2011-07-30, 02:17:04,VALID,998.603,VALID,0,VALID,89.9685,VALID,0,VALID,22.1617,VALID,54,VALID,0.808594,
2011-07-30, 02:18:04,VALID,998.587,VALID,0,VALID,89.8388,VALID,0,VALID,22.1617,VALID,54,VALID,0.724219,
2011-07-30, 02:19:04,VALID,998.571,VALID,0,VALID,89.793,VALID,0,VALID,22.121,VALID,54,VALID,0.626562,
2011-07-30, 02:20:04,VALID,998.61,VALID,0,VALID,89.8159,VALID,0,VALID,22.1422,VALID,54,VALID,0.644141,
2011-07-30, 02:21:04,VALID,998.609,VALID,0,VALID,89.793,VALID,0,VALID,22.121,VALID,54,VALID,0.573047,
2011-07-30, 02:22:04,VALID,998.56,VALID,0,VALID,89.7854,VALID,0,VALID,22.1227,VALID,54,VALID,0.684375,
2011-07-30, 02:23:04,VALID,998.599,VALID,0,VALID,89.7701,VALID,0,VALID,22.1227,VALID,54,VALID,0.637109,
2011-07-30, 02:24:04,VALID,998.615,VALID,0,VALID,89.6786,VALID,0,VALID,22.1015,VALID,54,VALID,0.583203,
2011-07-30, 02:25:04,VALID,998.565,VALID,0,VALID,89.4191,VALID,0,VALID,22.0447,VALID,54,VALID,0.323438,
2011-07-30, 02:26:04,VALID,998.566,VALID,0,VALID,89.32,VALID,0,VALID,21.9862,VALID,54,VALID,0,
2011-07-30, 02:27:04,VALID,998.531,VALID,0,VALID,89.4497,VALID,0,VALID,21.926,VALID,54,VALID,0.0664063,
2011-07-30, 02:28:04,VALID,998.536,VALID,0,VALID,89.6099,VALID,0,VALID,21.9472,VALID,54,VALID,0.364453,
2011-07-30, 02:29:04,VALID,998.538,VALID,0,VALID,89.8464,VALID,0,VALID,21.9277,VALID,54,VALID,0.439063,
2011-07-30, 02:30:04,VALID,998.529,VALID,0,VALID,90.2126,VALID,0,VALID,21.926,VALID,54,VALID,0.477734,
2011-07-30, 02:31:04,VALID,998.517,VALID,0,VALID,90.4034,VALID,0,VALID,21.9862,VALID,54,VALID,0.460938,
2011-07-30, 02:32:04,VALID,998.503,VALID,0,VALID,90.4415,VALID,0,VALID,21.965,VALID,54,VALID,0,
2011-07-30, 02:33:04,VALID,998.484,VALID,0,VALID,90.3423,VALID,0,VALID,21.9472,VALID,54,VALID,0,
2011-07-30, 02:34:04,VALID,998.498,VALID,0,VALID,90.2584,VALID,0,VALID,21.9277,VALID,54,VALID,0,
2011-07-30, 02:35:05,VALID,998.473,VALID,0,VALID,90.2355,VALID,0,VALID,21.9082,VALID,54,VALID,0,
2011-07-30, 02:36:05,VALID,998.469,VALID,0,VALID,90.3347,VALID,0,VALID,21.8692,VALID,54,VALID,0.323438,
2011-07-30, 02:37:05,VALID,998.466,VALID,0,VALID,90.4797,VALID,0,VALID,21.8692,VALID,54,VALID,0.249609,
2011-07-30, 02:38:05,VALID,998.455,VALID,0,VALID,90.6399,VALID,0,VALID,21.8496,VALID,54,VALID,0.321484,
2011-07-30, 02:39:05,VALID,998.453,VALID,0,VALID,90.7772,VALID,0,VALID,21.848,VALID,54,VALID,0.466406,
2011-07-30, 02:40:05,VALID,998.443,VALID,0,VALID,90.8688,VALID,0,VALID,21.8692,VALID,30,VALID,0.689453,
2011-07-30, 02:41:05,VALID,998.482,VALID,0,VALID,90.9756,VALID,0,VALID,21.9082,VALID,30,VALID,0.444922,
2011-07-30, 02:42:05,VALID,998.494,VALID,0,VALID,91.0137,VALID,0,VALID,21.887,VALID,30,VALID,0.572266,
2011-07-30, 02:43:05,VALID,998.508,VALID,0,VALID,91.0595,VALID,0,VALID,21.9277,VALID,30,VALID,0.511719,
2011-07-30, 02:44:05,VALID,998.501,VALID,0,VALID,91.1053,VALID,0,VALID,21.9277,VALID,30,VALID,0.706641,
2011-07-30, 02:45:05,VALID,998.472,VALID,0,VALID,91.1663,VALID,0,VALID,21.9472,VALID,30,VALID,0.769922,
2011-07-30, 02:46:05,VALID,998.496,VALID,0,VALID,91.1358,VALID,0,VALID,21.9667,VALID,7,VALID,0.698438,
2011-07-30, 02:47:05,VALID,998.493,VALID,0,VALID,90.968,VALID,0,VALID,21.9472,VALID,7,VALID,0.667969,
2011-07-30, 02:48:05,VALID,998.506,VALID,0,VALID,90.8306,VALID,0,VALID,21.9082,VALID,7,VALID,0.880469,
2011-07-30, 02:49:05,VALID,998.515,VALID,0,VALID,90.5483,VALID,0,VALID,21.848,VALID,7,VALID,0.925,
2011-07-30, 02:50:05,VALID,998.512,VALID,0,VALID,90.5865,VALID,0,VALID,21.8496,VALID,7,VALID,0.812109,
2011-07-30, 02:51:05,VALID,998.52,VALID,0,VALID,90.5788,VALID,0,VALID,21.8496,VALID,7,VALID,0.547266,
2011-07-30, 02:52:05,VALID,998.488,VALID,0,VALID,90.3652,VALID,0,VALID,21.7505,VALID,7,VALID,0.436328,
2011-07-30, 02:53:05,VALID,998.485,VALID,0,VALID,90.1897,VALID,0,VALID,21.6936,VALID,7,VALID,0.573828,
2011-07-30, 02:54:05,VALID,998.503,VALID,0,VALID,90.4415,VALID,0,VALID,21.6741,VALID,7,VALID,0.444141,
2011-07-30, 02:55:05,VALID,998.548,VALID,0,VALID,90.5865,VALID,0,VALID,21.6546,VALID,7,VALID,0.71875,
2011-07-30, 02:56:05,VALID,998.545,VALID,0,VALID,90.9222,VALID,0,VALID,21.6936,VALID,9,VALID,0.883203,
2011-07-30, 02:57:05,VALID,998.5,VALID,0,VALID,90.8764,VALID,0,VALID,21.6351,VALID,11,VALID,1.46094,
2011-07-30, 02:58:05,VALID,998.508,VALID,0,VALID,90.8611,VALID,0,VALID,21.6351,VALID,11,VALID,1.64961,
2011-07-30, 02:59:05,VALID,998.49,VALID,0,VALID,90.7238,VALID,0,VALID,21.5766,VALID,11,VALID,1.35234,
2011-07-30, 03:00:05,VALID,998.483,VALID,0,VALID,90.7467,VALID,0,VALID,21.5555,VALID,3,VALID,0.983203,
2011-07-30, 03:01:05,VALID,998.488,VALID,0,VALID,90.7467,VALID,0,VALID,21.536,VALID,3,VALID,1.08438,
2011-07-30, 03:02:05,VALID,998.458,VALID,0,VALID,90.9451,VALID,0,VALID,21.6156,VALID,3,VALID,0.939453,
2011-07-30, 03:03:05,VALID,998.438,VALID,0,VALID,90.9909,VALID,0,VALID,21.6546,VALID,3,VALID,0.643359,
2011-07-30, 03:04:05,VALID,998.448,VALID,0,VALID,91.0671,VALID,0,VALID,21.6741,VALID,354,VALID,0.519922,
2011-07-30, 03:05:05,VALID,998.413,VALID,0,VALID,91.1129,VALID,0,VALID,21.7326,VALID,354,VALID,0.653125,
2011-07-30, 03:06:05,VALID,998.403,VALID,0,VALID,91.0748,VALID,0,VALID,21.7521,VALID,354,VALID,0.287891,
2011-07-30, 03:07:05,VALID,998.379,VALID,0,VALID,90.884,VALID,0,VALID,21.692,VALID,354,VALID,0,
2011-07-30, 03:08:05,VALID,998.382,VALID,0,VALID,90.7925,VALID,0,VALID,21.6936,VALID,354,VALID,0.0664063,
2011-07-30, 03:09:05,VALID,998.363,VALID,0,VALID,90.8077,VALID,0,VALID,21.6936,VALID,354,VALID,0.373047,
2011-07-30, 03:10:05,VALID,998.345,VALID,0,VALID,90.9527,VALID,0,VALID,21.7115,VALID,354,VALID,0.419922,
2011-07-30, 03:11:05,VALID,998.345,VALID,0,VALID,90.9756,VALID,0,VALID,21.731,VALID,354,VALID,0.539453,
2011-07-30, 03:12:05,VALID,998.356,VALID,0,VALID,90.9298,VALID,0,VALID,21.731,VALID,354,VALID,0.278516,
2011-07-30, 03:13:05,VALID,998.333,VALID,0,VALID,90.7696,VALID,0,VALID,21.7115,VALID,19,VALID,0.689453,
2011-07-30, 03:14:05,VALID,998.333,VALID,0,VALID,90.4873,VALID,0,VALID,21.7131,VALID,56,VALID,1.04492,
2011-07-30, 03:15:05,VALID,998.307,VALID,0,VALID,90.144,VALID,0,VALID,21.6741,VALID,56,VALID,0.804297,
2011-07-30, 03:16:05,VALID,998.36,VALID,0,VALID,89.9532,VALID,0,VALID,21.6741,VALID,56,VALID,1.07852,
2011-07-30, 03:17:05,VALID,998.349,VALID,0,VALID,89.8388,VALID,0,VALID,21.6351,VALID,56,VALID,1.29961,
2011-07-30, 03:18:05,VALID,998.354,VALID,0,VALID,89.8388,VALID,0,VALID,21.6156,VALID,56,VALID,1.2125,
2011-07-30, 03:19:05,VALID,998.364,VALID,0,VALID,89.7625,VALID,0,VALID,21.5945,VALID,56,VALID,0.987109,
2011-07-30, 03:20:05,VALID,998.368,VALID,0,VALID,89.8922,VALID,0,VALID,21.5961,VALID,65,VALID,1.25156,
2011-07-30, 03:21:05,VALID,998.399,VALID,0,VALID,90.0448,VALID,0,VALID,21.575,VALID,82,VALID,1.14414,
2011-07-30, 03:22:05,VALID,998.391,VALID,0,VALID,90.1745,VALID,0,VALID,21.5766,VALID,91,VALID,1.15469,
2011-07-30, 03:23:05,VALID,998.452,VALID,0,VALID,90.3576,VALID,0,VALID,21.5766,VALID,92,VALID,0.969531,
2011-07-30, 03:24:05,VALID,998.442,VALID,0,VALID,90.5178,VALID,0,VALID,21.575,VALID,92,VALID,0.659766,
2011-07-30, 03:25:05,VALID,998.404,VALID,0,VALID,90.678,VALID,0,VALID,21.6156,VALID,92,VALID,0.626562,
2011-07-30, 03:26:05,VALID,998.426,VALID,0,VALID,90.8077,VALID,0,VALID,21.6351,VALID,92,VALID,0.755859,
2011-07-30, 03:27:05,VALID,998.415,VALID,0,VALID,90.9146,VALID,0,VALID,21.6546,VALID,92,VALID,0.942187,
2011-07-30, 03:28:05,VALID,998.432,VALID,0,VALID,90.9756,VALID,0,VALID,21.6741,VALID,92,VALID,0.731641,
2011-07-30, 03:29:05,VALID,998.457,VALID,0,VALID,90.9527,VALID,0,VALID,21.6546,VALID,92,VALID,0.432422,
2011-07-30, 03:30:05,VALID,998.521,VALID,0,VALID,90.8993,VALID,0,VALID,21.6546,VALID,92,VALID,0.399219,
2011-07-30, 03:31:05,VALID,998.486,VALID,0,VALID,90.8688,VALID,0,VALID,21.614,VALID,92,VALID,0.61875,
2011-07-30, 03:32:05,VALID,998.482,VALID,0,VALID,90.823,VALID,0,VALID,21.5961,VALID,64,VALID,0.934766,
2011-07-30, 03:33:05,VALID,998.497,VALID,0,VALID,90.8306,VALID,0,VALID,21.575,VALID,60,VALID,0.776953,
2011-07-30, 03:34:05,VALID,998.444,VALID,0,VALID,90.7467,VALID,0,VALID,21.5961,VALID,28,VALID,0.954687,
2011-07-30, 03:35:05,VALID,998.463,VALID,0,VALID,90.5636,VALID,0,VALID,21.5376,VALID,25,VALID,1.24844,
2011-07-30, 03:36:05,VALID,998.501,VALID,0,VALID,90.5712,VALID,0,VALID,21.5376,VALID,25,VALID,1.15781,
2011-07-30, 03:37:05,VALID,998.524,VALID,0,VALID,90.5636,VALID,0,VALID,21.5181,VALID,42,VALID,1.07773,
2011-07-30, 03:38:05,VALID,998.537,VALID,0,VALID,90.4873,VALID,0,VALID,21.4791,VALID,43,VALID,0.774609,
2011-07-30, 03:39:05,VALID,998.481,VALID,0,VALID,90.4339,VALID,0,VALID,21.4206,VALID,43,VALID,0.711719,
2011-07-30, 03:40:05,VALID,998.537,VALID,0,VALID,90.4339,VALID,0,VALID,21.3816,VALID,43,VALID,0.144141,
2011-07-30, 03:41:05,VALID,998.522,VALID,0,VALID,90.4186,VALID,0,VALID,21.3231,VALID,43,VALID,0,
2011-07-30, 03:42:05,VALID,998.515,VALID,0,VALID,90.4491,VALID,0,VALID,21.3036,VALID,43,VALID,0.0464844,
2011-07-30, 03:43:05,VALID,998.535,VALID,0,VALID,90.5407,VALID,0,VALID,21.2841,VALID,43,VALID,0.476563,
2011-07-30, 03:44:05,VALID,998.545,VALID,0,VALID,90.8154,VALID,0,VALID,21.3036,VALID,43,VALID,0.605859,
2011-07-30, 03:45:05,VALID,998.517,VALID,0,VALID,90.9222,VALID,0,VALID,21.3231,VALID,43,VALID,0.588281,
2011-07-30, 03:46:05,VALID,998.458,VALID,0,VALID,91.0748,VALID,0,VALID,21.3231,VALID,43,VALID,1.10078,
2011-07-30, 03:47:05,VALID,998.443,VALID,0,VALID,91.1892,VALID,0,VALID,21.3621,VALID,49,VALID,1.18516,